Página principal
METAR-TAF:

METAR-TAF

Aeroportos :

Kédougou, Senegal

latitude: 12-34N, longitude: 012-13W, altura: 178 m

Observação actual do tempo

O boletim foi feito há 1 hora e 48 minutos, às 03:00 UTC
Vento 2 kt com direcção variável
Temperatura 27°C
Humidade 84%
Pressão 1010 hPa
Visibilidade 10 km ou mais
sem nuvens abaixo de 1500 metros e sem cumulonimbus

METAR: GOTK 230300Z VRB02KT CAVOK 27/24 Q1010

Hora: 04:48 (04:48 UTC)


TAF: em falta

Observações e previsões do tempo de mais de 4000 aeroportos (mensagens METAR e TAF).

As estações disponíveis são os pontos amarelos e vermelhos sobre o mapa.

Mova o rato sobre o mapa para ver o nome da estação.

Depois clique no ponto para visualizar as observações e previsões meteorológicas.

Para alterar o mapa : clique nos botões verdes com uma cruz preta para aumentar o zoom; no botão verde com uma pitada de zoom; ou nas setas verdes para mapas adjacentes.


METAR-TAF: